Home > Weather > Bielsko-Biała > Past weeks

Flag for Poland Past Weather in Bielsko-Biała, Poland — Yesterday and Last 2 Weeks

Now
52 °F

Fog.


Feels Like: 52 °F
Forecast: 54 / 82 °F
Wind: 1 mph from Northeast

Location: Katowice

Current Time: Aug 26, 2016 at 7:24:55 AM

Latest Report: Aug 26, 2016 at 6:00 AM


Visibility: 6 mi

Pressure: 30.26 "Hg

Humidity: 92%

Dew Point: 50 °F

Location of Bielsko-BiałaLocation

Past Weather in Bielsko-Biała — Graph

°F

Bielsko-Biała Temperature Yesterday

Maximum temperature yesterday: 74 °F (at 4:00 PM)
Minimum temperature yesterday: 51 °F (at 5:00 AM)
Average temperature yesterday: 63 °F

High & Low Weather Summary for the Past Weeks

 TemperatureHumidityPressure
High79 °F (Aug 20, 4:00 PM)97% (Aug 23, 7:00 AM)30.37 "Hg (Aug 23, 7:00 AM)
Low43 °F (Aug 12, 5:00 AM)38% (Aug 12, 2:00 PM)29.83 "Hg (Aug 18, 5:00 PM)
Average62 °F75%30.13 "Hg
* Reported Aug 11 6:00 AM — Aug 26 6:00 AM, Bielsko-Biała, Weather by CustomWeather, © 2016

Note: Actual official high and low records may vary slightly from our data, if they occured in-between our weather recording intervals... More about our weather records

Advertising

Bielsko-Biała Weather History for the Previous 24 Hours

Scroll right to see more
 ConditionsComfort  
Time TempWeatherWind HumidityBarometerVisibility
6:00 AM
Fri, Aug 26
52 °FFog.1 mph92%30.26 "Hg6 mi
5:00 AM52 °FClear.No wind90%30.25 "Hg9 mi
4:00 AM55 °FClear.1 mph92%30.25 "Hg9 mi
3:00 AM53 °FClear.No wind92%30.26 "Hg9 mi
2:00 AM56 °FClear.1 mph91%30.25 "Hg12 mi
1:00 AM55 °FClear.1 mph89%30.27 "Hg12 mi
12:00 AM58 °FClear.1 mph86%30.27 "Hg12 mi
11:00 PM
Thu, Aug 25
59 °FClear.1 mph84%30.26 "Hg12 mi
10:00 PM59 °FClear.1 mph85%30.25 "Hg12 mi
9:00 PM61 °FClear.No wind79%30.26 "Hg19 mi
8:00 PM66 °FClear.1 mph66%30.24 "Hg19 mi
7:00 PM70 °FPassing clouds.3 mph55%30.22 "Hg31 mi
6:00 PM72 °FPassing clouds.6 mph50%30.22 "Hg19 mi
5:00 PM73 °FPassing clouds.6 mph50%30.23 "Hg19 mi
4:00 PM74 °FPassing clouds.5 mph51%30.24 "Hg19 mi
3:00 PM73 °FScattered clouds.6 mph49%30.25 "Hg19 mi
2:00 PM72 °FScattered clouds.6 mph51%30.26 "Hg19 mi
1:00 PM71 °FScattered clouds.6 mph54%30.27 "Hg19 mi
12:00 PM70 °FPartly sunny.5 mph55%30.28 "Hg19 mi
11:00 AM68 °FPartly sunny.5 mph59%30.29 "Hg19 mi
10:00 AM68 °FPassing clouds.5 mph59%30.29 "Hg19 mi
9:00 AM64 °FSunny.3 mph73%30.30 "Hg9 mi
8:00 AM59 °FOvercast.2 mph89%30.31 "Hg9 mi
7:00 AM53 °FScattered clouds.1 mph96%30.32 "Hg6 mi
Weather by CustomWeather, © 2016

See weather overviewHow to use our weather pages